Tracking 18793 objects as of 22-September-2017
HD Live streaming from Space Station
objects crossing your sky now

DSCS 2-15

Track DSCS 2-15 now!
DSCS 2-15 is classified as:


NORAD ID: 13636
Int'l Code: 1982-106A
Perigee: 37,296.8 km
Apogee: 37,326.6 km
Inclination: 16.1 °
Period: 1,514.3 minutes
Semi major axis: 43682 km
RCS: 4.13 m2 (large)
Launch date: October 30, 1982
Source: United States (US)
Launch site: AIR FORCE EASTERN TEST RANGE (AFETR)
aabbcc
Your satellite tracking list
Your tracking list is empty





NASA's NSSDC Master Catalog

Two Line Element Set (TLE):
1 13636U 82106A   17264.85172436 -.00000164 +00000-0 +00000-0 0  9994
2 13636 016.1418 351.7408 0003410 216.5879 081.7688 00.95090825073787
Source of the keplerian elements: AFSPC